www.pogodaiklimat.ru

Погода и климат >> Архив погоды >> Гватемала >> Guatemala


ПОГОДА в Guatemala

  • Прогноз погоды в Guatemala
  • Монитор погоды в Guatemala
  • Климат города

АРХИВ ПОГОДЫ в Guatemala

Время (UTC), дата Ветер
(напр.,м/с)
 
Видим.   Явления Облачность Т
(С)
Тd
(С)
f
(%)
Тe
(С)
Тes
(С)
Комфортность P
(гПа)
Po
(гПа)
Тmin
(С)
Tmax
(С)
R
(мм)
R24
(мм)
S
(см)
12 16.01 С 7 40 км 4/0
[Ci fib]
+9.4 +7.6 89 +5 +5 1020.6 858.2 +9.4 +19.4
18 16.01 С 7 40 км 8/0
[Cs]
+18.4 +9.5 56 +18 +21 1020.0 858.6 +8.0 +19.2 21
00 17.01 С 9 40 км 10/0
[Ac trans Cs]
+16.2 +10.7 70 +14 +14 1014.2 857.4 +9.4 +20.8
12 17.01 С 8 40 км 8/3 420 м
[Sc Ac trans]
+11.4 +8.9 85 +8 +8 1021.8 859.3 +11.4 +20.8
00 18.01 С 7 40 км 6/0
[Ac und]
+14.6 +6.4 58 +13 +13 1021.2 858.7 +9.4 +19.8
06 18.01 С 9 40 км 4/0
[Ac trans]
+12.6 +6.1 65 +9 +9 1022.4 860.8 +9.6 +19.8
12 18.01 С 7 40 км 8/0
[Ac und]
+11.0 +6.2 72 +8 +8 1021.2 858.9 +10.6 +19.8
18 18.01 С 8 40 км 10/5 540 м
[Sc Ac trans Ci]
+17.4 +12.0 71 +16 +17 1020.6 859.0 +9.6 +18.8
00 19.01 С 9 40 км 8/8 540 м
[Sc]
+14.8 +8.7 67 +12 +12 1017.6 857.5 +9.6 +19.6 361
12 19.01 С 5 40 км позёмок 9/9 540 м
[Sc]
+12.8 +9.7 81 +11 +11 1020.0 857.7 +11.0 +19.6
18 19.01 С 9 40 км позёмок {ливн. осадки} 9/3 600 м
[Sc Ci]
+19.8 +10.9 56 +20 +21 1018.2 857.8 +9.6 +20.4
00 20.01 С 8 40 км 10/3 540 м
[Sc Ci]
+16.6 +12.5 77 +15 +15 1016.4 855.8 +10.4 +21.6
12 20.01 С 6 40 км 8/8 360 м
[Sc]
+13.0 +12.0 94 +10 +10 1017.0 856.2 +12.4 +21.6 361
18 20.01 С 7 40 км 5/3 600 м
[Sc Ci fib]
+20.6 +11.5 56 +22 +25 комфорт 1017.0 856.8 +10.4 +21.2
00 21.01 С 8 40 км позёмок {дождь} 9/1 600 м
[Sc diur, vesp Ac trans Ci fib]
+19.8 +13.0 65 +21 +21 комфорт 1015.2 855.0 +12.4 +24.2
06 21.01 40 км позёмок {туман} н/о +15.2 +13.9 92 +13 +13 1015.8 856.7 +12.4 +24.2
12 21.01 С 5 40 км {туман} 5/1 480 м
[Sc Ac trans]
+15.4 +12.2 81 +14 +14 1014.7 855.5 +15.0 +24.2
18 21.01 С 7 40 км 3/1 600 м
[Cu hum Ci fib]
+23.8 +13.2 51 +26 +29 жарко 1012.9 854.9 +12.4 +24.4
00 22.01 С 6 40 км 4/4 600 м
[Cu hum]
+21.4 +13.2 60 +24 +24 комфорт 1011.1 852.7 +14.8 +26.2
06 22.01 З 10 10 км 4/4 <50 м
[]
+16.2 +14.3 89 +10 +10 1012.3 854.8 +14.8 +26.2
12 22.01 СВ 3 40 км 6/6 420 м
[Sc]
+15.6 +14.0 90 +15 +15 1012.9 854.5 +15.0 +26.2
18 22.01 СВ 5 40 км {туман} 4/4 600 м
[Cu med, cong]
+23.6 +14.7 57 +26 +31 жарко 1012.3 854.6 +14.8 +23.8
00 23.01 ЮЗ 42 <100 м 4/1 540 м
[Sc diur, vesp]
+21.4 +14.1 63 +24 +24 комфорт 1010.5 852.4 +14.8 +27.0

 

Местоположение метеостанции Guatemala (Гватемала): широта 14.58 долгота -90.51 высота над уровнем моря 1489 м.

В архиве по умолчанию представлена погода в Guatemala за последнюю неделю. Архивные данные за месяц целиком и за предыдущие месяцы, начиная с января 2011 года, Вы можете получить, выбрав интересующий диапазон дат из раскрывающегося списка и нажав кнопку "Ввод!".

Внимание! Время в таблицах - всемирное. Для получения местного времени необходимо прибавить поправку, которая в Guatemala равна -6 ч.

Смотрите также архив погоды в соседних городах и на ближайших метеорологических станциях:

Погода в San Jose (Гватемала) (80 км)
Погода в Huehuetenango (Гватемала) (131 км)
Погода в Nueva Ocotepeque (Гондурас) (144 км)
Погода в Santa Rosa De Copan (Гондурас) (187 км)
Погода в Tapachula City (Мексика) (191 км)
Погода в Puerto Barrios (Гватемала) (241 км)
Погода в Comitan (Мексика) (254 км)
Погода в La Esperanza (Гондурас) (255 км)
Погода в Flores (Гватемала) (269 км)
Погода в La Mesa (Гондурас) (294 км)

Пояснения к столбцам:

Ветер - указаны скорость ветра в м/с - средняя за 10 мин, порывы в срок и между сроками (в фигурных скобках) и направление, откуда дует ветер: С - северный, СВ - северо-восточный, В - восточный, ЮВ - юго-восточный, Ю - южный, ЮЗ - юго-западный, З - западный, СЗ - северо-западный.
Видимость - горизонтальная дальность видимости в метрах или километрах. При видимости от 1 до 10 км при отсутствии осадков обычно наблюдается дымка, при ухудшении видимости до 1 км и менее - туман. В сухую погоду видимость может ухудшаться дымом, пылью или мглою.
Явления - указаны атмосферные явления, наблюдавшиеся в срок или в последний час перед сроком; фигурными скобками обозначены явления, наблюдавшиеся между сроками (за 1-3 часа до срока); квадратными скобками обозначены град или гололедные отложения с указанием их диаметра в мм.
Облачность - указаны через наклонную черту общая и нижняя облачность в баллах и высота нижней границы облаков в метрах; квадратными скобками обозначены формы облаков: Ci - перистые, Cs - перисто-слоистые, Cc - перисто-кучевые, Ac - высококучевые, As - высокослоистые, Sc - слоисто-кучевые, Ns - слоисто-дождевые, Cu - кучевые, Cb - кучево-дождевые. Подробнее классификацию облаков см. в Атласе облаков (PDF).
T - Температура воздуха - температура, измеренная на высоте 2 м над землей.
Td - Температура точки росы - температура, при понижении до которой содержащийся в воздухе водяной пар достигнет насыщения.
f - Относительная влажность воздуха - влажноcть воздуха, измеренная на высоте 2 м над землей.
Te - Эффективная температура - температура, которую ощущает одетый по сезону человек в тени. Характеристика душности погоды. При расчете учитывается влияние влажности воздуха и скорости ветра на теплоощущения человека.
Tes - Эффективная температура на солнце - температура, которую ощущает человек, с поправкой на солнечный нагрев. Характеристика знойности погоды. Зависит от высоты солнца над горизонтом, облачности и скорости ветра. Ночью, в пасмурную погоду, а также при ветре 12 м/с и более поправка равна нулю.
P - Атмосферное давление - приведенное к уровню моря атмосферное давление.
Po - Атмосферное давление - измеренное на уровне метеостанции атмосферное давление.
Tmin - Минимальная температура - минимум температуры воздуха на высоте 2 м над землей.
Tmax - Максимальная температура - максимум температуры воздуха на высоте 2 м над землей.
R - Количество осадков - Количество выпавших осадков за период времени, мм. При наведении курсора мыши на число - период времени, за который выпало указанное количество осадков.
R24 - Количество осадков - Количество выпавших осадков за 24 часа, мм.
S - Снежный покров - Высота снежного покрова, см. При наведении курсора мыши на число - состояние снежного покрова и степень покрытия местности в баллах.